Temperature
20 21 20 20 20 20 20 20 20 20 19 20 20 19 19 19 19 19 19 19 19 19 19 18 18 18 18 18 18 18 18 18 18 18 17 17 17 17 17 17 17 17 17
21 21 20 20 20 20 20 20 19 19 19 19 19 19 19 19 19 19 19 19 19 19 18 18 18 18 18 18 18 18 18 18 18 18 18 17 17 17 17 17 17 17 17
21 21 21 20 20 20 20 19 19 19 19 19 19 19 19 19 19 19 19 18 18 18 18 18 18 18 18 18 18 18 18 18 18 18 17 17 17 17 17 17 17 17 17
22 21 21 20 20 20 20 19 19 19 19 19 19 19 19 19 18 18 18 18 18 18 18 18 18 18 18 18 18 18 18 18 18 18 17 17 17 17 17 17 17 17 17
22 21 21 21 20 20 20 19 19 19 19 19 19 18 18 18 18 18 18 18 18 18 18 18 18 18 18 18 18 17 17 18 18 18 18 18 17 17 17 17 17 17 17
22 21 21 21 20 20 20 19 19 19 19 19 18 18 18 18 18 18 18 18 18 18 18 18 18 18 18 17 17 17 17 17 18 18 18 18 18 17 17 17 17 17 17
21 21 21 20 20 20 20 19 19 19 19 19 18 18 18 18 18 18 18 18 18 18 18 18 18 18 18 17 17 17 17 17 17 17 18 18 18 17 17 17 17 17 17
21 21 20 20 20 20 20 19 19 19 19 18 18 18 18 18 18 18 18 18 18 18 18 18 18 18 17 17 17 17 17 17 17 17 18 18 18 17 17 17 17 17 17
21 21 20 20 20 20 20 19 19 19 19 18 18 18 18 18 18 18 18 18 18 18 18 18 18 18 17 17 17 17 17 17 17 17 18 18 18 17 17 17 17 17 17
21 21 20 20 20 19 19 19 19 19 19 18 18 18 18 18 18 18 18 18 18 18 18 18 18 18 17 17 17 17 17 17 17 17 18 18 18 17 17 17 17 17 17
20 20 20 20 19 19 19 19 19 19 19 18 18 18 18 18 18 18 18 18 18 18 18 18 18 18 18 17 17 17 17 17 17 17 17 18 18 17 17 17 17 17 17
20 20 20 20 19 19 19 19 19 19 18 18 18 18 18 18 18 18 18 18 18 18 18 18 18 18 17 17 17 17 17 17 17 17 17 18 18 17 17 17 17 17 17
20 20 20 19 19 19 19 19 19 19 18 18 18 18 18 18 17 18 18 18 18 18 17 17 17 17 17 17 17 17 17 18 18 17 18 17 17 17 17 17 17 17 17
19 19 19 19 19 19 19 19 19 18 18 18 18 18 18 18 17 17 17 17 17 17 17 17 17 17 17 17 17 17 17 17 17 17 17 17 17 17 17 17 17 17 17
19 19 19 19 19 19 19 19 18 18 18 18 18 18 17 18 17 17 17 17 17 17 17 17 17 17 17 17 17 17 17 17 17 17 17 17 17 17 17 17 17 17 17
19 19 19 19 19 19 19 19 18 18 18 18 18 18 17 17 17 17 17 17 17 17 17 17 17 17 17 17 17 17 17 17 17 17 17 17 17 17 17 17 17 17 17
19 19 19 19 19 18 18 18 18 18 18 18 18 18 17 17 17 17 17 17 17 17 17 17 17 17 17 17 17 17 17 17 17 17 17 17 17 17 17 17 17 17 17
19 19 19 18 18 18 18 18 18 18 18 18 18 18 17 17 17 17 17 17 17 17 17 17 17 17 17 17 17 17 17 17 17 17 17 17 17 17 17 17 17 16 16
19 19 18 18 18 18 18 18 18 18 18 18 18 18 18 17 17 17 17 17 17 17 17 17 17 17 17 17 17 17 17 17 17 16 17 17 17 17 16 16 16 16 16
19 19 19 18 18 18 18 18 18 18 18 18 18 18 18 17 17 17 17 17 17 17 17 17 17 17 17 17 17 17 17 17 17 16 16 16 16 16 16 16 16 16 16
19 19 18 18 18 18 18 18 18 18 18 18 18 18 18 17 17 17 17 17 17 17 17 17 17 17 17 17 17 17 17 17 17 17 16 16 16 16 16 16 16 16 16
19 18 18 18 18 18 18 18 18 18 18 18 17 17 17 17 17 17 17 17 17 17 17 17 17 17 17 17 17 17 17 17 17 17 17 17 17 16 16 16 16 16 16
19 19 18 18 18 18 18 18 18 17 17 17 17 17 17 17 17 17 17 17 17 17 17 17 17 17 17 17 17 17 17 17 17 17 17 17 17 17 16 16 16 16 16
19 19 19 19 18 18 18 18 18 18 18 18 18 17 17 17 17 17 17 17 17 17 16 16 16 16 17 17 17 17 17 17 17 17 17 17 17 17 17 17 16 16 16
19 19 19 18 18 18 18 18 18 18 18 18 17 17 17 17 17 17 17 17 16 16 16 16 16 16 16 17 17 17 17 17 17 17 17 17 17 17 17 17 17 16 16
19 19 18 18 18 18 18 18 18 18 18 18 17 17 17 17 17 17 17 17 17 16 16 16 16 16 16 16 17 17 17 17 17 17 17 17 17 17 17 17 17 17 16
Wind_Speed
10 13 20 20 20 20 20 20 19 19 19 19 19 19 19 19 19 18 18 17 16 15 15 15 15 15 16 17 19 19 20 21 21 20 20 19 19 20 20 19 19 17 19
14 17 21 21 21 21 21 20 19 19 18 18 18 18 18 17 17 17 17 16 15 15 15 15 15 15 16 17 18 19 20 20 20 20 19 18 19 19 19 18 18 16 18
17 17 21 21 22 21 21 21 20 19 18 18 17 17 17 16 16 16 16 15 15 15 15 15 15 15 16 17 18 18 19 19 19 19 17 15 17 18 19 19 18 18 18
17 17 19 22 22 22 21 20 20 19 18 17 17 17 16 16 16 15 15 15 15 15 15 15 15 15 15 16 17 17 17 18 18 16 14 14 15 18 18 18 18 18 17
15 16 20 23 23 22 21 20 19 19 18 17 17 16 16 16 15 16 15 15 15 15 14 14 15 15 15 15 15 15 15 15 15 14 13 14 14 17 17 17 17 17 17
15 16 21 24 23 22 22 20 20 19 18 17 16 16 15 15 16 15 15 15 15 14 14 14 14 14 14 14 13 13 13 13 14 14 14 14 13 16 16 16 16 16 16
15 15 20 23 23 22 22 20 19 19 18 17 16 16 16 15 15 15 15 15 14 14 13 13 13 12 13 12 12 11 10 12 12 13 13 13 14 16 16 15 15 15 15
17 14 18 22 23 22 22 21 20 19 18 17 17 16 15 15 15 15 15 14 14 13 13 12 11 11 11 10 10 10 9 10 13 12 12 13 14 15 15 15 14 14 14
15 13 12 17 19 21 21 21 20 19 18 17 16 16 16 15 15 14 14 14 13 12 12 11 10 9 9 8 9 9 9 11 13 12 12 12 15 15 15 14 14 14 14
13 12 10 12 14 15 17 20 19 19 18 17 16 16 15 15 14 14 13 13 12 11 10 9 8 8 7 7 7 8 9 11 13 12 11 13 16 15 14 14 14 13 13
13 11 11 10 10 12 14 17 18 18 17 16 15 15 14 12 12 12 12 12 11 11 10 8 7 6 5 4 5 7 9 9 12 11 12 15 16 15 14 13 13 13 13
16 13 11 11 9 10 12 13 12 13 13 12 12 13 12 11 10 10 12 11 10 10 9 7 5 4 3 2 3 5 7 9 11 11 12 16 16 15 14 14 13 12 12
16 15 12 12 10 8 6 9 7 9 9 10 11 12 11 9 8 8 7 7 7 7 5 5 4 2 2 2 3 4 7 8 9 9 12 16 15 15 14 14 13 12 12
16 15 13 12 11 7 7 7 6 6 6 6 9 11 9 6 5 6 5 5 5 5 4 4 3 3 3 3 5 6 7 8 9 9 13 16 15 14 14 13 13 12 12
16 14 14 13 11 9 8 6 7 5 6 8 8 10 11 6 5 5 4 5 5 5 4 3 3 3 2 3 5 7 6 8 10 11 12 15 15 14 14 13 13 12 12
15 14 13 13 11 10 8 6 6 6 7 8 8 9 11 9 6 5 4 4 5 6 6 5 4 3 2 3 4 6 6 9 10 11 11 13 15 15 14 13 13 13 12
15 14 14 13 11 11 9 7 7 7 8 6 7 9 11 10 9 6 4 3 4 6 5 4 2 2 2 2 4 4 5 7 9 10 11 11 12 14 14 14 13 13 13
15 13 14 14 12 10 8 6 5 6 7 6 7 8 10 10 10 7 4 3 5 5 4 3 2 2 2 2 3 3 3 5 7 10 10 11 11 11 13 14 14 13 13
15 15 13 12 12 10 8 6 5 6 5 6 7 6 8 9 10 8 4 3 5 4 3 3 3 3 2 2 2 2 3 3 4 8 8 10 12 12 12 13 14 14 13
14 14 14 12 11 9 7 6 5 5 4 4 5 6 8 8 9 8 4 4 5 4 3 3 3 2 2 2 2 2 1 2 2 4 6 8 11 12 13 12 12 13 14
12 12 12 12 11 10 8 6 6 5 4 4 4 7 8 8 9 7 4 4 4 4 4 4 3 3 2 2 3 3 3 2 1 3 3 4 6 11 12 13 12 12 12
13 13 12 12 11 10 7 6 5 5 4 4 3 4 8 8 8 7 5 5 4 4 4 4 4 3 1 2 3 3 2 4 3 1 2 4 5 7 8 12 12 13 13
14 14 13 11 11 10 9 6 6 5 4 3 3 3 4 7 8 7 7 5 5 4 4 4 4 4 2 1 2 4 3 3 2 3 2 3 4 5 5 9 12 14 14
12 12 11 11 11 10 10 9 9 7 6 6 5 4 4 6 7 8 8 6 5 4 4 3 4 3 4 2 0 0 2 4 3 1 3 2 3 5 6 5 9 12 14
11 10 10 10 10 10 10 11 10 7 5 5 5 6 5 4 6 8 8 6 5 4 5 4 4 4 3 3 2 1 1 1 2 3 2 3 3 3 5 5 6 9 13
9 9 10 10 9 9 10 10 9 9 8 9 8 7 5 4 4 6 7 6 6 5 5 5 5 5 4 4 3 2 2 2 1 2 3 3 3 4 4 4 4 7 12
Wind_Direction
149 153 149 144 138 134 129 124 120 117 114 112 110 109 108 109 110 110 111 111 112 112 110 109 108 108 110 111 112 113 115 115 116 115 114 114 113 111 108 107 105 104 107
147 152 149 145 141 137 133 129 126 123 120 117 116 114 113 112 113 113 113 112 112 113 113 112 111 111 112 113 114 116 117 117 116 114 113 113 115 113 111 110 109 111 110
143 148 147 145 142 139 136 133 131 129 125 123 121 120 117 116 116 116 116 116 115 115 115 115 115 114 115 116 117 118 119 117 114 111 107 105 112 113 113 112 111 111 111
141 145 146 144 142 140 138 137 135 133 130 128 127 125 123 121 120 119 118 119 119 118 118 118 118 117 117 118 120 122 123 121 118 114 109 108 112 115 115 115 114 113 113
139 143 147 145 143 141 140 139 138 135 134 133 131 129 128 125 122 122 121 120 120 120 120 120 120 120 119 120 122 124 125 124 121 117 112 109 114 119 118 117 116 116 116
139 143 148 146 144 143 142 141 140 139 138 136 134 132 131 129 126 124 123 121 120 120 122 121 122 123 122 123 125 127 129 128 118 118 117 118 121 124 122 120 120 119 118
139 142 147 145 145 144 144 143 143 142 141 139 137 136 133 131 129 126 125 124 123 123 124 123 124 125 126 126 128 129 130 129 123 124 124 124 126 127 127 125 124 122 121
141 140 146 147 147 147 148 147 145 144 143 142 141 139 138 136 132 130 129 128 127 126 126 125 126 126 126 125 125 127 130 135 134 134 131 131 133 131 131 131 130 128 126
140 140 143 147 149 149 148 148 147 146 146 145 144 141 140 138 136 135 133 132 132 132 131 131 130 130 126 123 124 125 125 130 137 138 138 138 139 137 137 137 136 135 133
141 143 144 143 146 146 148 149 149 149 149 148 147 145 143 143 141 140 139 139 139 140 139 138 138 136 129 124 126 126 122 130 143 142 140 147 146 144 143 143 141 141 140
147 151 148 143 142 143 148 153 152 151 153 151 151 151 146 143 145 146 148 148 147 147 148 148 149 146 137 129 125 123 121 134 144 144 150 155 152 150 149 149 148 148 147
159 159 154 152 150 151 156 151 153 153 154 151 153 147 146 149 154 156 160 157 155 153 156 161 168 167 151 134 120 119 123 136 144 152 160 159 156 155 155 155 155 155 153
160 159 159 158 158 161 150 151 151 149 150 153 159 155 156 155 155 152 155 158 160 161 159 172 186 197 191 183 159 143 141 145 148 157 165 164 162 161 161 161 162 162 161
162 162 161 160 160 159 150 157 155 154 156 162 173 169 158 150 148 154 156 162 169 175 175 176 192 207 215 195 166 152 149 149 153 159 170 170 168 168 168 168 168 169 169
163 164 164 161 161 158 155 165 163 165 167 171 173 172 164 155 157 160 168 175 184 182 177 178 185 180 180 162 153 146 145 157 162 167 174 176 175 174 175 175 175 175 176
164 163 161 162 161 156 163 169 163 166 167 165 164 167 163 160 157 155 157 167 181 182 178 171 171 158 157 145 145 146 153 162 166 171 176 181 182 182 182 182 181 181 182
163 161 160 163 161 163 168 172 165 165 163 156 160 164 162 159 157 154 155 164 172 173 164 147 140 122 132 126 133 148 157 164 171 177 179 182 187 190 190 189 190 191 191
159 161 164 167 164 165 165 161 156 156 155 152 154 159 159 157 153 147 151 159 161 154 143 131 125 113 103 119 135 156 156 164 173 181 182 186 190 195 200 200 198 199 201
161 162 166 163 164 163 158 147 143 142 148 152 152 157 154 152 150 144 144 148 143 131 134 145 121 128 127 136 152 153 163 169 177 182 186 194 197 200 204 209 207 205 209
161 162 162 160 161 154 148 140 132 128 140 144 151 158 150 148 148 141 136 130 126 121 122 120 119 111 129 156 149 121 171 182 178 185 194 198 203 207 209 209 211 213 218
159 161 162 161 160 157 156 152 147 149 151 156 166 158 152 146 144 140 133 128 129 132 140 133 118 108 99 112 86 39 2 356 224 210 195 196 205 208 207 208 209 212 220
167 167 167 166 164 164 162 157 154 150 155 161 158 155 158 150 148 146 138 142 138 128 125 124 121 115 76 112 123 103 26 345 323 259 203 203 203 203 207 212 212 214 218
171 173 173 169 166 164 155 144 136 117 106 129 155 171 173 157 152 144 147 143 143 143 148 146 133 130 130 47 141 143 149 212 283 318 270 212 193 194 206 209 213 218 219
178 174 170 169 167 165 157 155 156 158 163 179 177 174 173 161 153 151 147 141 142 144 149 158 144 137 133 117 7 191 170 159 156 270 317 295 229 207 205 208 211 215 216
178 174 170 167 169 168 164 167 167 166 168 164 162 161 167 169 160 154 149 143 143 146 154 148 135 130 130 140 144 126 79 82 121 149 234 288 299 256 227 217 209 209 211
174 172 168 169 172 171 168 169 171 170 166 163 167 171 174 172 166 162 154 149 148 152 159 156 145 140 135 132 133 130 136 140 185 166 197 234 251 266 249 232 219 214 211
Height
1514 1516 1518 1520 1522 1523 1524 1526 1527 1528 1529 1530 1531 1532 1533 1535 1536 1537 1538 1539 1540 1540 1541 1542 1542 1543 1543 1544 1544 1545 1546 1546 1547 1548 1549 1550 1550 1551 1551 1552 1553 1554 1554
1511 1515 1518 1520 1522 1523 1525 1526 1528 1529 1530 1531 1532 1533 1535 1536 1537 1538 1539 1540 1541 1541 1542 1543 1544 1544 1545 1545 1546 1547 1547 1548 1549 1550 1551 1552 1552 1553 1553 1554 1555 1555 1556
1512 1515 1518 1520 1522 1524 1525 1527 1528 1530 1531 1532 1533 1534 1535 1537 1538 1539 1540 1541 1542 1542 1543 1544 1545 1546 1546 1547 1548 1549 1549 1550 1551 1552 1553 1553 1554 1555 1556 1556 1557 1557 1558
1512 1515 1518 1521 1523 1524 1526 1528 1529 1530 1532 1533 1534 1535 1536 1538 1539 1540 1541 1542 1543 1543 1544 1545 1546 1547 1548 1549 1550 1550 1551 1552 1553 1554 1555 1555 1556 1557 1557 1558 1559 1559 1560
1512 1515 1518 1521 1523 1524 1526 1528 1530 1531 1533 1534 1535 1536 1538 1539 1540 1541 1542 1543 1544 1545 1546 1547 1548 1549 1550 1551 1552 1553 1553 1554 1555 1556 1556 1557 1558 1559 1559 1560 1561 1561 1562
1512 1515 1518 1520 1522 1524 1526 1528 1530 1532 1533 1535 1536 1537 1539 1540 1541 1542 1543 1544 1545 1546 1547 1548 1549 1551 1552 1553 1554 1555 1555 1556 1556 1557 1558 1559 1559 1560 1561 1562 1563 1563 1564
1511 1515 1518 1520 1522 1524 1526 1528 1530 1532 1534 1535 1537 1538 1540 1541 1542 1543 1544 1545 1547 1548 1549 1550 1551 1553 1554 1555 1556 1556 1557 1558 1558 1559 1560 1561 1561 1562 1563 1564 1564 1565 1566
1511 1514 1517 1520 1522 1524 1526 1529 1531 1533 1534 1536 1538 1539 1541 1542 1543 1544 1545 1547 1548 1549 1551 1552 1553 1554 1555 1556 1557 1558 1559 1559 1560 1561 1562 1562 1563 1564 1565 1565 1566 1567 1568
1512 1514 1516 1520 1522 1524 1526 1529 1531 1533 1535 1537 1539 1540 1541 1543 1544 1546 1547 1548 1549 1551 1552 1553 1555 1556 1557 1558 1559 1560 1560 1561 1562 1563 1564 1564 1565 1566 1566 1567 1568 1568 1569
1511 1514 1516 1519 1522 1524 1527 1529 1531 1534 1535 1537 1539 1541 1542 1544 1545 1547 1548 1549 1551 1552 1553 1555 1556 1557 1558 1560 1560 1561 1562 1562 1563 1564 1565 1566 1566 1567 1568 1569 1569 1570 1571
1510 1513 1516 1519 1521 1524 1527 1529 1532 1534 1536 1538 1540 1541 1543 1544 1546 1547 1549 1550 1552 1553 1554 1556 1557 1558 1560 1561 1561 1562 1563 1563 1564 1565 1566 1567 1568 1568 1569 1570 1571 1571 1572
1508 1512 1515 1518 1521 1524 1527 1529 1532 1534 1536 1538 1540 1541 1543 1545 1546 1548 1550 1551 1553 1554 1555 1557 1558 1559 1560 1561 1562 1563 1564 1564 1565 1566 1567 1568 1568 1569 1570 1571 1572 1572 1573
1506 1510 1514 1517 1521 1524 1526 1529 1531 1534 1536 1538 1541 1542 1544 1545 1547 1548 1550 1552 1553 1555 1556 1557 1559 1560 1561 1562 1563 1564 1564 1565 1566 1567 1567 1568 1569 1570 1571 1572 1572 1573 1574
1505 1509 1513 1517 1520 1524 1527 1529 1531 1534 1536 1538 1541 1542 1544 1545 1547 1549 1551 1552 1554 1555 1557 1558 1559 1560 1562 1563 1564 1564 1565 1566 1567 1567 1568 1569 1570 1571 1572 1572 1573 1574 1575
1503 1508 1512 1516 1519 1523 1526 1529 1531 1534 1535 1538 1540 1542 1544 1545 1547 1549 1551 1553 1554 1556 1557 1558 1559 1561 1562 1563 1564 1565 1565 1566 1567 1568 1569 1569 1570 1571 1572 1573 1574 1574 1575
1501 1505 1511 1515 1518 1522 1525 1528 1531 1533 1535 1537 1540 1542 1544 1546 1547 1549 1551 1552 1554 1555 1557 1558 1560 1561 1562 1563 1564 1565 1566 1566 1568 1568 1569 1570 1570 1571 1572 1573 1574 1574 1575
1500 1505 1508 1513 1516 1520 1524 1527 1530 1532 1534 1537 1539 1542 1544 1546 1547 1549 1550 1552 1554 1555 1557 1558 1560 1561 1562 1563 1564 1565 1566 1567 1568 1568 1569 1570 1570 1571 1572 1573 1574 1574 1575
1498 1503 1507 1511 1515 1519 1522 1525 1528 1531 1534 1536 1539 1542 1544 1545 1547 1548 1550 1552 1553 1555 1556 1557 1559 1560 1562 1563 1564 1565 1566 1567 1567 1568 1569 1570 1570 1571 1572 1572 1573 1574 1575
1497 1501 1505 1509 1512 1517 1521 1524 1527 1530 1533 1536 1539 1541 1543 1545 1546 1548 1550 1551 1553 1554 1555 1557 1558 1560 1561 1563 1564 1565 1566 1566 1567 1568 1568 1569 1570 1571 1571 1572 1572 1573 1574
1496 1500 1504 1507 1511 1515 1519 1523 1526 1529 1532 1535 1538 1540 1542 1544 1546 1547 1549 1551 1552 1554 1555 1557 1558 1560 1561 1562 1563 1564 1565 1566 1567 1567 1568 1568 1569 1570 1571 1571 1572 1572 1573
1495 1499 1502 1506 1510 1514 1517 1521 1524 1527 1530 1534 1537 1539 1541 1543 1545 1546 1548 1550 1551 1553 1554 1556 1557 1559 1560 1562 1563 1564 1565 1565 1566 1567 1567 1567 1568 1569 1570 1570 1571 1571 1572
1494 1497 1501 1505 1509 1513 1516 1520 1523 1526 1529 1533 1536 1538 1540 1542 1544 1545 1547 1549 1550 1552 1553 1555 1556 1558 1559 1561 1562 1563 1564 1566 1565 1566 1566 1566 1567 1568 1568 1569 1570 1570 1570
1493 1497 1501 1504 1507 1511 1515 1519 1522 1525 1528 1531 1534 1537 1539 1541 1543 1544 1546 1548 1549 1551 1552 1553 1555 1556 1558 1560 1561 1562 1563 1563 1564 1565 1564 1565 1566 1566 1567 1567 1568 1568 1569
1493 1496 1500 1503 1507 1510 1513 1516 1519 1522 1525 1528 1531 1535 1538 1540 1542 1543 1545 1546 1548 1549 1551 1552 1554 1555 1557 1558 1560 1561 1562 1562 1563 1563 1564 1564 1565 1565 1565 1566 1566 1567 1567
1493 1496 1499 1502 1505 1508 1512 1515 1518 1521 1524 1527 1531 1533 1536 1538 1540 1542 1544 1545 1547 1548 1549 1551 1552 1554 1556 1557 1559 1560 1560 1561 1562 1562 1562 1563 1563 1563 1564 1564 1564 1565 1565
1493 1495 1498 1500 1503 1507 1510 1514 1516 1519 1522 1525 1528 1531 1534 1536 1538 1540 1542 1544 1545 1547 1548 1549 1551 1553 1555 1556 1558 1559 1559 1560 1560 1561 1561 1561 1561 1562 1562 1562 1563 1563 1563